Kezdőlap
METAR-TAF:

METAR-TAF

Repülőterek :

Charles City, Iowa, Amerikai Egyesült Államok

földrajzi szélesség: 43-04N, földrajzi hosszúság: 092-37W, magasság: 343 m

Jelenlegi meteorológiai megfigyelések

A jelentés 16 perccel ezelõtt készült, 16:35 UTC
Észak-északnyugati szél 9 kt
Hőmérséklet 3°C
Páratartalom 70%
Légköri nyomás 1014 hPa
Derült ég

METAR: KCCY 041635Z AUTO 34009KT CLR 03/M02 A2995 RMK AO2

Idő: 10:51 (16:51 UTC)


TAF: hiányzik

Meteorológiai megfigyelések és előrejelzések több, mint 4000 repülőtéren (METAR és TAF jelentéseket).

A térképen piros és sárga pontok jelzik az elérhető meteorológiai állomásokat.

Mozgassa az egeret a pont fölött, hogy megjelenjen az állomás neve.

Azután kattintson az időjárási megfigyelések és előrejelzések megtekintéséhez.

A térkép megváltoztatása: kattintson a fekete keresztel jelölt zöld gombra ráközelítéshez, a vonallal jelölt zöld gombra távolításhoz, vagy a zöld nyilakra a szomszédos térképek eléréséhez.


METAR-TAF: